Ft. Stewart, GA

5:32 AM EDT on April 29, 2017 (GMT -0400)
Wright Army Air Field

Weather History for KLHW - September, 2012

Change the Weather History Date:

Sunday, September 9, 2012

  Actual Average Record
Temperature  
Mean Temperature 78 °F -  
Max Temperature 86 °F 88 °F 95 °F (1969)
Min Temperature 69 °F 68 °F 59 °F (2011)
Cooling Degree Days 12    
Growing Degree Days 28 (Base 50)    
Moisture  
Dew Point 72 °F    
Average Humidity 89    
Maximum Humidity 100    
Minimum Humidity 54    
Precipitation  
Precipitation 0.00 in - - ()
Sea Level Pressure  
Sea Level Pressure 29.85 in    
Wind  
Wind Speed 5 mph (WNW)    
Max Wind Speed 9 mph    
Max Gust Speed -    
Visibility 10 miles    
Events      
Averages and records for this station are not official NWS values.
T = Trace of Precipitation, MM = Missing Value Source: NWS Daily Summary

Daily Weather History Graph

Daily Weather History Graph

Search for Another Location

Airport or City:

Trip Planner

Search our weather history database for the weather conditions in past years. The results will help you decide how hot, cold, wet, or windy it might be!

Date:

Astronomy

Sep. 09, 2012 Rise Set
Actual Time 7:06 AM EDT 7:39 PM EDT
Civil Twilight 6:42 AM EDT 8:03 PM EDT
Nautical Twilight 6:13 AM EDT 8:32 PM EDT
Astronomical Twilight 5:43 AM EDT 9:02 PM EDT
Moon 12:50 AM EDT (9/9) 3:08 PM EDT (9/9)
Length of Visible Light 13h 21m
Length of Day
12h 32m
Last Quarter, 39% of the Moon is Illuminated
Sep 9
Last Quarter
Sep 15
New
Sep 22
First Quarter
Sep 29
Full
Oct 8
Last Quarter

Hourly Weather History & Observations

Time (EDT) Temp. Heat Index Dew Point Humidity Pressure Visibility Wind Dir Wind Speed Gust Speed Precip Events Conditions
12:18 AM 75.2 °F - 75.2 °F 100% 29.83 in 10.0 mi SSW 5.8 mph - N/A   Overcast
12:55 AM 75.0 °F - 74.1 °F 97% 29.81 in 10.0 mi South 5.8 mph - N/A   Overcast
1:14 AM 75.2 °F - 75.2 °F 100% 29.81 in 10.0 mi SW 3.5 mph - N/A   Scattered Clouds
1:23 AM 75.2 °F - 75.2 °F 100% 29.81 in 10.0 mi SW 3.5 mph - N/A   Mostly Cloudy
1:35 AM 75.2 °F - 75.2 °F 100% 29.81 in 10.0 mi Variable 3.5 mph - N/A   Mostly Cloudy
1:50 AM 75.2 °F - 75.2 °F 100% 29.81 in 10.0 mi South 4.6 mph - N/A   Overcast
1:55 AM 75.0 °F - 74.5 °F 98% 29.81 in 10.0 mi Variable 5.8 mph - N/A   Overcast
2:03 AM 75.2 °F - 75.2 °F 100% 29.80 in 10.0 mi South 4.6 mph - N/A   Overcast
2:55 AM 75.4 °F - 74.8 °F 98% 29.80 in 10.0 mi SW 3.5 mph - N/A   Overcast
3:08 AM 75.2 °F - 75.2 °F 100% 29.80 in 10.0 mi SW 4.6 mph - N/A   Overcast
3:18 AM 75.2 °F - 75.2 °F 100% 29.79 in 10.0 mi Calm Calm - N/A   Overcast
3:55 AM 75.7 °F - 74.8 °F 97% 29.79 in 10.0 mi West 4.6 mph - N/A   Overcast
4:35 AM 75.2 °F - 75.2 °F 100% 29.80 in 10.0 mi WSW 5.8 mph - N/A   Overcast
4:55 AM 75.7 °F - 74.8 °F 97% 29.81 in 10.0 mi WSW 5.8 mph - N/A   Overcast
5:05 AM 75.2 °F - 75.2 °F 100% 29.81 in 10.0 mi WSW 4.6 mph - N/A   Overcast
5:14 AM 75.2 °F - 75.2 °F 100% 29.81 in 10.0 mi WSW 5.8 mph - N/A   Overcast
5:55 AM 75.0 °F - 74.1 °F 97% 29.81 in 10.0 mi West 4.6 mph - N/A   Mostly Cloudy
6:30 AM 75.2 °F - 73.4 °F 94% 29.81 in 10.0 mi West 5.8 mph - N/A   Overcast
6:32 AM 75.2 °F - 73.4 °F 94% 29.81 in 10.0 mi West 5.8 mph - N/A   Overcast
6:34 AM 75.2 °F - 73.4 °F 94% 29.81 in 10.0 mi West 4.6 mph - N/A   Overcast
6:49 AM 75.2 °F - 73.4 °F 94% 29.81 in 10.0 mi West 4.6 mph - N/A   Overcast
6:55 AM 74.3 °F - 73.4 °F 97% 29.81 in 10.0 mi West 3.5 mph - N/A   Mostly Cloudy
7:02 AM 75.2 °F - 73.4 °F 94% 29.81 in 10.0 mi WNW 4.6 mph - N/A   Overcast
7:29 AM 73.4 °F - 73.4 °F 100% 29.82 in 10.0 mi NW 4.6 mph - N/A   Overcast
7:48 AM 73.4 °F - 73.4 °F 100% 29.83 in 10.0 mi NW 5.8 mph - N/A   Overcast
7:55 AM 74.1 °F - 72.7 °F 95% 29.83 in 10.0 mi NW 4.6 mph - N/A   Overcast
8:21 AM 73.4 °F - 71.6 °F 94% 29.83 in 10.0 mi NW 4.6 mph - N/A   Overcast
8:55 AM 74.3 °F - 71.2 °F 90% 29.85 in 10.0 mi NNW 9.2 mph - N/A   Overcast
9:55 AM 75.7 °F - 71.6 °F 87% 29.86 in 10.0 mi NNW 5.8 mph - N/A   Overcast
10:15 AM 77.0 °F - 71.6 °F 83% 29.87 in 10.0 mi Variable 5.8 mph - N/A   Overcast
10:55 AM 76.6 °F - 71.1 °F 83% 29.87 in 10.0 mi NNW 6.9 mph - N/A   Overcast
11:34 AM 77.0 °F - 71.6 °F 83% 29.88 in 10.0 mi NNW 4.6 mph - N/A   Overcast
11:38 AM 77.0 °F - 69.8 °F 78% 29.88 in 10.0 mi Variable 5.8 mph - N/A   Overcast
11:48 AM 77.0 °F - 69.8 °F 78% 29.89 in 10.0 mi NNW 9.2 mph - N/A   Overcast
11:55 AM 77.0 °F - 70.5 °F 80% 29.89 in 10.0 mi NNW 6.9 mph - N/A   Overcast
12:55 PM 79.5 °F - 70.3 °F 73% 29.88 in 10.0 mi NNW 5.8 mph - N/A   Overcast
1:09 PM 80.6 °F 83.9 °F 69.8 °F 70% 29.88 in 10.0 mi Calm Calm - N/A   Mostly Cloudy
1:55 PM 81.5 °F 84.9 °F 69.8 °F 67% 29.87 in 10.0 mi NW 4.6 mph - N/A   Overcast
2:55 PM 84.7 °F 89.1 °F 70.0 °F 61% 29.86 in 10.0 mi WSW 8.1 mph - N/A   Partly Cloudy
3:55 PM 85.1 °F 89.4 °F 69.6 °F 60% 29.85 in 10.0 mi NW 6.9 mph - N/A   Mostly Cloudy
4:55 PM 86.0 °F 89.1 °F 67.8 °F 54% 29.86 in 10.0 mi Calm Calm - N/A   Mostly Cloudy
5:55 PM 83.8 °F 87.3 °F 68.7 °F 60% 29.87 in 10.0 mi North 9.2 mph - N/A   Scattered Clouds
6:55 PM 80.4 °F 83.2 °F 68.7 °F 67% 29.89 in 10.0 mi North 5.8 mph - N/A   Partly Cloudy
7:55 PM 76.8 °F - 70.0 °F 79% 29.91 in 10.0 mi North 5.8 mph - N/A   Scattered Clouds
8:55 PM 74.3 °F - 69.3 °F 84% 29.93 in 10.0 mi NNE 3.5 mph - N/A   Clear
9:55 PM 72.0 °F - 69.4 °F 92% 29.95 in 10.0 mi Calm Calm - N/A   Clear
10:55 PM 71.2 °F - 69.4 °F 94% 29.96 in 10.0 mi Calm Calm - N/A   Clear
11:31 PM 69.8 °F - 68.0 °F 94% 29.97 in 7.0 mi Calm Calm - N/A   Clear
11:32 PM 69.8 °F - 68.0 °F 94% 29.98 in 7.0 mi Calm Calm - N/A   Clear
11:55 PM 69.1 °F - 68.2 °F 97% 29.98 in 9.0 mi Calm Calm - N/A   Clear